Simultaneous Nadir Overpasses (SNOs) Predictions

Prediction of SNOs between AQUA and METOP-B Satellite Orbit:

Table of predicted SNOs for the next 14.0 days since TLE Epoch: 4/19/2019
Index Date (AQUA) Time (AQUA) Lat,Lon (AQUA) SZA (AQUA ) Date (METOP-B) Time (METOP-B) Lat,Lon (METOP-B) SZA (METOP-B ) Distance(km) Time Diff (sec)
1 04/21/2019 22:56:11 73.82,-169.67 61.79 04/21/2019 22:54:59 73.84,-169.66 61.83 3.25 72
2 04/21/2019 23:45:38 -73.91, -2.23 118.13 04/21/2019 23:45:40 -73.88, -2.25 118.16 3.24 2
3 04/22/2019 00:35:07 73.97, 165.26 61.93 04/22/2019 00:36:18 73.97, 165.31 61.92 1.60 71
4 04/24/2019 18:30:23 73.84,-103.28 60.87 04/24/2019 18:29:22 73.81,-103.33 60.86 3.10 61
5 04/24/2019 19:19:49 -73.88, 64.28 119.10 04/24/2019 19:20:02 -73.90, 64.21 119.08 3.36 13
6 04/24/2019 20:09:25 74.30,-129.06 61.35 04/24/2019 20:10:34 74.29,-127.49 61.28 47.23 69
7 04/27/2019 14:04:35 73.82, -36.78 59.93 04/27/2019 14:03:45 73.83, -36.88 59.96 3.52 50
8 04/27/2019 14:54:02 -73.91, 130.66 119.98 04/27/2019 14:54:25 -73.93, 130.67 119.97 2.18 23
9 04/30/2019 09:38:48 73.85, 29.59 59.09 04/30/2019 09:38:08 73.85, 29.56 59.09 0.89 40
10 04/30/2019 10:28:15 -73.94,-162.97 120.83 04/30/2019 10:28:48 -73.95,-162.87 120.83 3.09 33
11 05/03/2019 05:13:00 73.88, 95.96 58.27 05/03/2019 05:12:30 73.86, 96.00 58.25 3.07 30
12 05/03/2019 06:02:26 -73.92, -96.49 121.70 05/03/2019 06:03:11 -73.92, -96.54 121.71 1.90 45




NCC Satellite Simultaneous Nadir Overpasses (SNOs) Prediction Service
